Salida, CO

2:34 AM MST on November 20, 2017 (GMT -0700)
Salida

Weather History for KANK - February, 2013

Change the Weather History Date:

Tuesday, February 26, 2013

  Actual Average (KGUC) Record (KGUC)
Temperature  
Mean Temperature 24 °F -  
Max Temperature 32 °F 30 °F 46 °F (2014)
Min Temperature 14 °F 8 °F -7 °F (2006)
Degree Days  
Heating Degree Days 42    
Moisture  
Dew Point 10 °F    
Average Humidity 55    
Maximum Humidity 79    
Minimum Humidity 36    
Precipitation  
Precipitation 0.00 in - - ()
Sea Level Pressure  
Sea Level Pressure 29.89 in    
Wind  
Wind Speed 7 mph (NW)    
Max Wind Speed 20 mph    
Max Gust Speed 24 mph    
Visibility 10 miles    
Events      
Averages and records for this station are not official NWS values.
T = Trace of Precipitation, MM = Missing Value Source: NWS Daily Summary

Daily Weather History Graph

Daily Weather History Graph

Search for Another Location

Airport or City:

Trip Planner

Search our weather history database for the weather conditions in past years. The results will help you decide how hot, cold, wet, or windy it might be!

Date:

Astronomy

Feb. 26, 2013 Rise Set
Actual Time 6:40 AM MST 5:54 PM MST
Civil Twilight 6:13 AM MST 6:21 PM MST
Nautical Twilight 5:42 AM MST 6:51 PM MST
Astronomical Twilight 5:12 AM MST 7:22 PM MST
Moon 7:12 PM MST (2/26) 6:45 AM MST (2/26)
Length of Visible Light 12h 07m
Length of Day
11h 14m
Full, 99% of the Moon is Illuminated
Feb 26
Full
Mar 4
Last Quarter
Mar 11
New
Mar 19
First Quarter
Mar 27
Full

Hourly Weather History & Observations

Time (MST) Temp. Windchill Dew Point Humidity Pressure Visibility Wind Dir Wind Speed Gust Speed Precip Events Conditions
12:15 AM 26.6 °F 18.2 °F 10.2 °F 50% 29.88 in 10.0 mi NW 8.1 mph - N/A   Mostly Cloudy
12:35 AM 26.6 °F 22.6 °F 9.3 °F 48% 29.88 in 10.0 mi NNW 3.5 mph - N/A   Scattered Clouds
12:55 AM 25.3 °F 15.3 °F 9.5 °F 51% 29.87 in 10.0 mi NNW 10.4 mph - N/A   Clear
1:15 AM 25.0 °F 14.2 °F 9.1 °F 51% 29.87 in 10.0 mi NNW 11.5 mph - N/A   Clear
1:35 AM 25.3 °F 16.7 °F 8.8 °F 50% 29.86 in 10.0 mi NW 8.1 mph 11.5 mph N/A   Clear
1:55 AM 24.6 °F 18.8 °F 8.8 °F 51% 29.86 in 10.0 mi NNW 4.6 mph - N/A   Clear
2:15 AM 23.7 °F 14.7 °F 8.8 °F 53% 29.85 in 10.0 mi NNW 8.1 mph - N/A   Clear
2:35 AM 23.4 °F 12.2 °F 8.6 °F 53% 29.85 in 10.0 mi NW 11.5 mph - N/A   Clear
2:55 AM 23.9 °F 18.0 °F 7.7 °F 50% 29.85 in 10.0 mi NNW 4.6 mph - N/A   Clear
3:15 AM 23.0 °F 13.1 °F 7.7 °F 52% 29.84 in 10.0 mi NW 9.2 mph - N/A   Clear
3:35 AM 22.8 °F 16.7 °F 7.7 °F 52% 29.84 in 10.0 mi WNW 4.6 mph - N/A   Clear
3:55 AM 22.3 °F 13.9 °F 7.3 °F 53% 29.83 in 10.0 mi NNW 6.9 mph - N/A   Clear
4:15 AM 21.7 °F 14.3 °F 7.5 °F 54% 29.83 in 10.0 mi NW 5.8 mph - N/A   Clear
4:35 AM 19.4 °F 12.8 °F 6.8 °F 58% 29.83 in 10.0 mi WNW 4.6 mph - N/A   Clear
4:55 AM 19.2 °F - 7.0 °F 59% 29.82 in 10.0 mi Calm Calm - N/A   Clear
5:15 AM 17.4 °F - 7.3 °F 65% 29.82 in 10.0 mi Calm Calm - N/A   Mostly Cloudy
5:35 AM 17.2 °F - 7.0 °F 64% 29.82 in 10.0 mi Calm Calm - N/A   Scattered Clouds
5:55 AM 15.8 °F - 6.6 °F 67% 29.82 in 10.0 mi Calm Calm - N/A   Clear
6:15 AM 18.0 °F 11.1 °F 6.8 °F 62% 29.82 in 10.0 mi North 4.6 mph - N/A   Clear
6:35 AM 18.1 °F 8.9 °F 7.0 °F 62% 29.82 in 10.0 mi West 6.9 mph - N/A   Clear
6:55 AM 18.3 °F - 7.3 °F 62% 29.82 in 10.0 mi Calm Calm - N/A   Mostly Cloudy
7:15 AM 20.8 °F 14.4 °F 7.5 °F 56% 29.82 in 10.0 mi NW 4.6 mph - N/A   Overcast
7:35 AM 19.4 °F 14.3 °F 7.7 °F 60% 29.82 in 10.0 mi NNW 3.5 mph - N/A   Overcast
7:55 AM 19.2 °F 12.5 °F 7.5 °F 60% 29.82 in 10.0 mi NNW 4.6 mph - N/A   Overcast
8:15 AM 20.5 °F 15.6 °F 8.1 °F 59% 29.82 in 10.0 mi NNW 3.5 mph - N/A   Overcast
8:35 AM 21.7 °F 12.3 °F 8.4 °F 57% 29.82 in 10.0 mi NNW 8.1 mph - N/A   Overcast
8:55 AM 22.8 °F 15.5 °F 8.8 °F 55% 29.82 in 10.0 mi NNW 5.8 mph - N/A   Overcast
9:15 AM 23.5 °F 14.5 °F 9.0 °F 54% 29.80 in 10.0 mi NNW 8.1 mph - N/A   Overcast
9:35 AM 23.9 °F 18.0 °F 9.3 °F 54% 29.80 in 10.0 mi North 4.6 mph - N/A   Overcast
9:55 AM 25.5 °F 19.9 °F 10.2 °F 52% 29.80 in 10.0 mi North 4.6 mph - N/A   Overcast
10:15 AM 27.1 °F 21.8 °F 9.7 °F 48% 29.80 in 10.0 mi North 4.6 mph - N/A   Overcast
10:35 AM 28.0 °F 22.8 °F 9.3 °F 45% 29.80 in 10.0 mi NNW 4.6 mph - N/A   Mostly Cloudy
11:15 AM 31.3 °F 25.6 °F 11.3 °F 44% 29.79 in 10.0 mi North 5.8 mph - N/A   Overcast
11:35 AM 32.0 °F 22.1 °F 7.3 °F 36% 29.79 in 10.0 mi WNW 13.8 mph 24.2 mph N/A   Overcast
11:55 AM 31.1 °F 20.9 °F 9.0 °F 40% 29.80 in 10.0 mi WNW 13.8 mph - N/A   Overcast
12:15 PM 30.4 °F 21.0 °F 12.2 °F 47% 29.80 in 10.0 mi West 11.5 mph 18.4 mph N/A   Overcast
12:35 PM 30.2 °F 20.8 °F 12.2 °F 47% 29.80 in 10.0 mi West 11.5 mph 19.6 mph N/A   Overcast
12:55 PM 27.5 °F 15.0 °F 15.8 °F 61% 29.81 in 10.0 mi West 17.3 mph 24.2 mph N/A   Overcast
1:15 PM 25.3 °F 13.1 °F 18.5 °F 75% 29.82 in 0.8 mi West 15.0 mph 20.7 mph N/A   Overcast
1:35 PM 27.3 °F 19.1 °F 16.9 °F 65% 29.82 in 10.0 mi WSW 8.1 mph - N/A   Overcast
1:55 PM 26.4 °F 12.8 °F 16.5 °F 66% 29.83 in 4.0 mi West 19.6 mph 24.2 mph N/A   Overcast
2:15 PM 24.6 °F 11.7 °F 19.0 °F 79% 29.84 in 0.8 mi West 16.1 mph - N/A   Overcast
2:35 PM 26.1 °F 15.6 °F 19.2 °F 75% 29.84 in 4.0 mi WSW 11.5 mph 17.3 mph N/A   Overcast
2:55 PM 26.8 °F 16.5 °F 17.6 °F 68% 29.84 in 10.0 mi WSW 11.5 mph - N/A   Mostly Cloudy
3:15 PM 27.5 °F 16.3 °F 17.2 °F 65% 29.85 in 10.0 mi West 13.8 mph - N/A   Overcast
3:35 PM 26.8 °F 16.5 °F 17.1 °F 67% 29.86 in 5.0 mi West 11.5 mph - N/A   Overcast
3:55 PM 27.7 °F 18.8 °F 16.2 °F 62% 29.87 in 10.0 mi West 9.2 mph - N/A   Overcast
4:15 PM 27.3 °F 16.6 °F 16.7 °F 64% 29.88 in 7.0 mi WSW 12.7 mph - N/A   Overcast
4:35 PM 27.1 °F 18.2 °F 16.2 °F 63% 29.90 in 10.0 mi West 9.2 mph - N/A   Overcast
4:55 PM 27.5 °F 18.0 °F 15.8 °F 61% 29.90 in 10.0 mi WSW 10.4 mph - N/A   Overcast
5:15 PM 27.5 °F - 14.9 °F 59% 29.92 in 10.0 mi Calm Calm - N/A   Overcast
5:35 PM 28.2 °F 24.4 °F 11.8 °F 50% 29.93 in 10.0 mi West 3.5 mph - N/A   Overcast
5:55 PM 27.1 °F 21.8 °F 14.9 °F 60% 29.95 in 10.0 mi NW 4.6 mph - N/A   Overcast
6:15 PM 27.3 °F 22.0 °F 14.0 °F 57% 29.97 in 10.0 mi North 4.6 mph - N/A   Overcast
6:35 PM 27.0 °F 18.0 °F 10.6 °F 50% 29.98 in 10.0 mi NNW 9.2 mph 17.3 mph N/A   Overcast
6:55 PM 26.6 °F 22.6 °F 12.6 °F 55% 29.99 in 10.0 mi North 3.5 mph - N/A   Overcast
7:15 PM 25.7 °F 17.1 °F 9.1 °F 50% 30.00 in 10.0 mi NNW 8.1 mph - N/A   Overcast
7:35 PM 25.7 °F 17.1 °F 9.0 °F 49% 30.01 in 10.0 mi North 8.1 mph - N/A   Mostly Cloudy
7:55 PM 24.8 °F 16.1 °F 8.4 °F 50% 30.03 in 10.0 mi North 8.1 mph - N/A   Scattered Clouds
8:15 PM 23.9 °F 16.8 °F 6.8 °F 48% 30.04 in 10.0 mi WNW 5.8 mph - N/A   Mostly Cloudy
8:35 PM 23.5 °F 13.0 °F 5.9 °F 47% 30.05 in 10.0 mi NW 10.4 mph - N/A   Scattered Clouds
8:55 PM 23.0 °F 12.4 °F 5.5 °F 47% 30.07 in 10.0 mi NW 10.4 mph - N/A   Mostly Cloudy
9:15 PM 23.0 °F 11.7 °F 4.8 °F 46% 30.07 in 10.0 mi NW 11.5 mph 17.3 mph N/A   Scattered Clouds
9:35 PM 22.8 °F 9.9 °F 4.1 °F 45% 30.09 in 10.0 mi NW 15.0 mph 18.4 mph N/A   Scattered Clouds
9:55 PM 22.8 °F 10.9 °F 4.1 °F 45% 30.09 in 10.0 mi NW 12.7 mph 18.4 mph N/A   Overcast
10:15 PM 23.0 °F 11.7 °F 3.9 °F 44% 30.10 in 10.0 mi NNW 11.5 mph 24.2 mph N/A   Overcast
10:35 PM 22.1 °F 12.8 °F 4.1 °F 46% 30.10 in 10.0 mi NW 8.1 mph 17.3 mph N/A   Scattered Clouds
10:55 PM 21.9 °F 11.0 °F 3.9 °F 46% 30.11 in 10.0 mi NNW 10.4 mph 18.4 mph N/A   Clear
11:15 PM 16.9 °F 4.1 °F 3.9 °F 57% 30.12 in 10.0 mi WNW 11.5 mph 17.3 mph N/A   Clear
11:35 PM 15.1 °F 4.2 °F 3.6 °F 60% 30.12 in 10.0 mi West 8.1 mph - N/A   Clear
11:55 PM 14.7 °F 4.8 °F 2.8 °F 59% 30.13 in 10.0 mi West 6.9 mph - N/A   Clear